^^
Saratoga-Weather Station Historical Data
Daily Summary for August 7, 2020 Units:  Metric    English   Both
Daily Weekly Monthly Yearly Custom
  High: Low: Average:
Temperature: 32 °C 13.6 °C 22.8 °C
Dew Point: 16 °C 10.4 °C 13.3 °C
Humidity: 83% 34% 58%
Wind Speed: 16.1km/h 0km/h 1.8km/h
Wind Gust: 17.7km/h - -
Wind- - ESE
Pressure: 1018.6 hPa 1016.3 hPa -
Precipitation: 0.0 mm    
Historical Graphs
 
 
Tabular Data for August 7, 2020
Time Temperature Dew Point Pressure Wind Wind Speed Wind Gust Humidity Rainfall Rate (Hourly) solar
00:03 17.4 °C 10.8 °C 1016.3 hPa Calm     65% 0.0 mm 0 W/m2
00:08 17.3 °C 10.7 °C 1016.3 hPa Calm     65% 0.0 mm 0 W/m2
00:13 17.2 °C 10.8 °C 1016.6 hPa Calm     66% 0.0 mm 0 W/m2
00:18 17.2 °C 10.8 °C 1016.6 hPa Calm     66% 0.0 mm 0 W/m2
00:23 17.1 °C 10.7 °C 1016.3 hPa Calm     66% 0.0 mm 0 W/m2
00:28 17.1 °C 10.7 °C 1016.3 hPa Calm     66% 0.0 mm 0 W/m2
00:33 16.9 °C 10.7 °C 1016.6 hPa Calm     67% 0.0 mm 0 W/m2
00:38 16.9 °C 10.7 °C 1016.6 hPa Calm     67% 0.0 mm 0 W/m2
00:43 16.8 °C 10.9 °C 1016.6 hPa Calm     68% 0.0 mm 0 W/m2
00:48 16.7 °C 10.8 °C 1016.6 hPa Calm     68% 0.0 mm 0 W/m2
00:53 16.6 °C 10.9 °C 1016.6 hPa Calm     69% 0.0 mm 0 W/m2
00:58 16.4 °C 10.7 °C 1016.6 hPa Calm     69% 0.0 mm 0 W/m2
01:03 16.3 °C 10.6 °C 1016.6 hPa Calm     69% 0.0 mm 0 W/m2
01:08 16.2 °C 10.5 °C 1016.6 hPa Calm     69% 0.0 mm 0 W/m2
01:13 16.2 °C 10.7 °C 1016.6 hPa Calm     70% 0.0 mm 0 W/m2
01:18 16.2 °C 10.7 °C 1016.6 hPa Calm     70% 0.0 mm 0 W/m2
01:23 16.1 °C 10.6 °C 1016.6 hPa Calm     70% 0.0 mm 0 W/m2
01:28 16.1 °C 10.6 °C 1016.6 hPa Calm     70% 0.0 mm 0 W/m2
01:33 16.1 °C 10.8 °C 1016.6 hPa Calm     71% 0.0 mm 0 W/m2
01:38 16.1 °C 10.8 °C 1016.6 hPa Calm     71% 0.0 mm 0 W/m2
01:43 16 °C 10.7 °C 1016.6 hPa Calm     71% 0.0 mm 0 W/m2
01:48 16 °C 10.7 °C 1016.6 hPa Calm     71% 0.0 mm 0 W/m2
01:53 15.8 °C 10.8 °C 1016.9 hPa Calm     72% 0.0 mm 0 W/m2
01:58 15.7 °C 10.7 °C 1016.9 hPa Calm     72% 0.0 mm 0 W/m2
02:03 15.7 °C 10.7 °C 1016.6 hPa Calm     72% 0.0 mm 0 W/m2
02:08 15.6 °C 10.6 °C 1016.6 hPa Calm     72% 0.0 mm 0 W/m2
02:13 15.6 °C 10.8 °C 1016.6 hPa Calm     73% 0.0 mm 0 W/m2
02:19 15.6 °C 10.8 °C 1016.9 hPa Calm     73% 0.0 mm 0 W/m2
02:24 15.6 °C 10.8 °C 1016.9 hPa Calm     73% 0.0 mm 0 W/m2
02:29 15.4 °C 10.8 °C 1016.9 hPa Calm     74% 0.0 mm 0 W/m2
02:34 15.3 °C 10.7 °C 1016.9 hPa Calm     74% 0.0 mm 0 W/m2
02:39 15.3 °C 10.7 °C 1016.9 hPa Calm     74% 0.0 mm 0 W/m2
02:44 15.2 °C 10.8 °C 1016.9 hPa Calm     75% 0.0 mm 0 W/m2
02:49 15.2 °C 10.8 °C 1016.9 hPa Calm     75% 0.0 mm 0 W/m2
02:54 15.2 °C 10.8 °C 1016.9 hPa Calm     75% 0.0 mm 0 W/m2
02:59 15.2 °C 10.8 °C 1016.9 hPa Calm     75% 0.0 mm 0 W/m2
03:04 15.2 °C 10.8 °C 1016.9 hPa Calm     75% 0.0 mm 0 W/m2
03:09 15.1 °C 10.7 °C 1016.9 hPa Calm     75% 0.0 mm 0 W/m2
03:14 15.1 °C 10.7 °C 1016.9 hPa Calm     75% 0.0 mm 0 W/m2
03:19 15.1 °C 10.7 °C 1016.9 hPa Calm     75% 0.0 mm 0 W/m2
03:24 15 °C 10.6 °C 1016.9 hPa Calm     75% 0.0 mm 0 W/m2
03:29 14.9 °C 10.7 °C 1016.9 hPa Calm     76% 0.0 mm 0 W/m2
03:34 14.8 °C 10.6 °C 1016.9 hPa Calm     76% 0.0 mm 0 W/m2
03:39 14.8 °C 10.6 °C 1016.9 hPa Calm     76% 0.0 mm 0 W/m2
03:44 14.7 °C 10.7 °C 1016.9 hPa Calm     77% 0.0 mm 0 W/m2
03:49 14.7 °C 10.7 °C 1016.9 hPa Calm     77% 0.0 mm 0 W/m2
03:54 14.6 °C 10.6 °C 1016.9 hPa Calm     77% 0.0 mm 0 W/m2
03:59 14.5 °C 10.5 °C 1016.9 hPa Calm     77% 0.0 mm 0 W/m2
04:04 14.4 °C 10.6 °C 1016.9 hPa Calm     78% 0.0 mm 0 W/m2
04:09 14.4 °C 10.6 °C 1016.9 hPa Calm     78% 0.0 mm 0 W/m2
04:14 14.4 °C 10.6 °C 1016.9 hPa Calm     78% 0.0 mm 0 W/m2
04:19 14.4 °C 10.6 °C 1016.9 hPa Calm     78% 0.0 mm 0 W/m2
04:24 14.3 °C 10.5 °C 1016.9 hPa Calm     78% 0.0 mm 0 W/m2
04:29 14.3 °C 10.5 °C 1016.9 hPa Calm     78% 0.0 mm 0 W/m2
04:34 14.2 °C 10.4 °C 1016.9 hPa Calm     78% 0.0 mm 0 W/m2
04:39 14.2 °C 10.6 °C 1016.9 hPa Calm     79% 0.0 mm 0 W/m2
04:44 14.2 °C 10.6 °C 1016.9 hPa Calm     79% 0.0 mm 0 W/m2
04:49 14.2 °C 10.6 °C 1016.9 hPa Calm     79% 0.0 mm 0 W/m2
04:54 14.2 °C 10.6 °C 1016.9 hPa Calm     79% 0.0 mm 0 W/m2
04:59 14.1 °C 10.5 °C 1016.9 hPa Calm     79% 0.0 mm 0 W/m2
05:04 14.1 °C 10.5 °C 1016.9 hPa Calm     79% 0.0 mm 0 W/m2
05:09 14 °C 10.4 °C 1016.9 hPa Calm     79% 0.0 mm 0 W/m2
05:14 13.9 °C 10.5 °C 1016.9 hPa Calm     80% 0.0 mm 0 W/m2
05:19 13.9 °C 10.5 °C 1016.9 hPa Calm     80% 0.0 mm 0 W/m2
05:24 13.9 °C 10.5 °C 1016.9 hPa Calm     80% 0.0 mm 0 W/m2
05:29 13.8 °C 10.4 °C 1017.3 hPa Calm     80% 0.0 mm 0 W/m2
05:34 13.8 °C 10.4 °C 1017.3 hPa Calm     80% 0.0 mm 0 W/m2
05:39 13.8 °C 10.6 °C 1016.9 hPa Calm     81% 0.0 mm 0 W/m2
05:45 13.8 °C 10.6 °C 1017.3 hPa Calm     81% 0.0 mm 0 W/m2
05:50 13.8 °C 10.6 °C 1017.3 hPa Calm     81% 0.0 mm 0 W/m2
05:55 13.8 °C 10.6 °C 1017.3 hPa Calm     81% 0.0 mm 0 W/m2
06:00 13.7 °C 10.5 °C 1017.3 hPa Calm     81% 0.0 mm 0 W/m2
06:05 13.7 °C 10.7 °C 1017.3 hPa Calm     82% 0.0 mm 0 W/m2
06:10 13.7 °C 10.7 °C 1017.3 hPa Calm     82% 0.0 mm 0 W/m2
06:15 13.6 °C 10.6 °C 1017.3 hPa Calm     82% 0.0 mm 5 W/m2
06:20 13.6 °C 10.6 °C 1017.3 hPa Calm     82% 0.0 mm 7 W/m2
06:25 13.7 °C 10.9 °C 1017.3 hPa Calm     83% 0.0 mm 9 W/m2
06:30 13.7 °C 10.7 °C 1017.3 hPa Calm     82% 0.0 mm 11 W/m2
06:35 13.8 °C 10.8 °C 1017.6 hPa Calm     82% 0.0 mm 12 W/m2
06:41 13.8 °C 10.8 °C 1017.6 hPa Calm   1.6 km/h 82% 0.0 mm 14 W/m2
06:46 13.9 °C 10.9 °C 1017.6 hPa Calm     82% 0.0 mm 16 W/m2
06:51 13.9 °C 10.9 °C 1017.6 hPa Calm     82% 0.0 mm 18 W/m2
06:56 14 °C 11.2 °C 1017.6 hPa Calm     83% 0.0 mm 21 W/m2
07:01 14.2 °C 11.2 °C 1018.0 hPa Calm     82% 0.0 mm 21 W/m2
07:06 14.3 °C 11.1 °C 1017.6 hPa Calm     81% 0.0 mm 23 W/m2
07:11 14.4 °C 11.2 °C 1018.0 hPa Calm     81% 0.0 mm 23 W/m2
07:16 14.4 °C 11.2 °C 1018.0 hPa Calm     81% 0.0 mm 25 W/m2
07:21 14.5 °C 11.1 °C 1018.0 hPa Calm     80% 0.0 mm 26 W/m2
07:26 14.6 °C 11.2 °C 1018.0 hPa Calm     80% 0.0 mm 26 W/m2
07:31 14.7 °C 11.3 °C 1018.0 hPa Calm     80% 0.0 mm 28 W/m2
07:36 14.8 °C 11.4 °C 1018.0 hPa Calm     80% 0.0 mm 30 W/m2
07:41 14.9 °C 11.5 °C 1018.0 hPa Calm     80% 0.0 mm 30 W/m2
07:46 15.1 °C 11.5 °C 1018.3 hPa Calm     79% 0.0 mm 32 W/m2
07:51 15.2 °C 11.6 °C 1018.3 hPa Calm     79% 0.0 mm 33 W/m2
07:56 15.3 °C 11.5 °C 1018.3 hPa Calm     78% 0.0 mm 40 W/m2
08:01 15.6 °C 11.8 °C 1018.3 hPa Calm     78% 0.0 mm 49 W/m2
08:06 15.9 °C 11.7 °C 1018.3 hPa Calm   1.6 km/h 76% 0.0 mm 125 W/m2
08:12 16.3 °C 11.7 °C 1018.3 hPa Calm     74% 0.0 mm 40 W/m2
08:17 16.8 °C 11.9 °C 1018.3 hPa South 1.4 km/h 1.6 km/h 73% 0.0 mm 39 W/m2
08:22 17.6 °C 12.3 °C 1018.3 hPa NE 1.4 km/h 3.2 km/h 71% 0.0 mm 40 W/m2
08:27 18.3 °C 12.3 °C 1018.3 hPa Calm   3.2 km/h 68% 0.0 mm 39 W/m2
08:32 18.9 °C 12.2 °C 1018.3 hPa Calm   1.6 km/h 65% 0.0 mm 39 W/m2
08:37 19.3 °C 12.1 °C 1018.3 hPa Calm   1.6 km/h 63% 0.0 mm 39 W/m2
08:42 19.7 °C 12.5 °C 1018.6 hPa Calm   1.6 km/h 63% 0.0 mm 39 W/m2
08:47 19.9 °C 12.4 °C 1018.6 hPa ESE 4.7 km/h 6.4 km/h 62% 0.0 mm 39 W/m2
08:52 20.1 °C 12.3 °C 1018.6 hPa NNE 1.4 km/h 3.2 km/h 61% 0.0 mm 40 W/m2
08:57 20.3 °C 12.3 °C 1018.6 hPa Calm   3.2 km/h 60% 0.0 mm 49 W/m2
09:02 20.4 °C 12.4 °C 1018.6 hPa NNW 1.4 km/h 1.6 km/h 60% 0.0 mm 169 W/m2
09:07 20.7 °C 12.4 °C 1018.6 hPa NE 1.4 km/h 4.8 km/h 59% 0.0 mm 353 W/m2
09:12 20.8 °C 12.5 °C 1018.6 hPa Calm   3.2 km/h 59% 0.0 mm 376 W/m2
09:17 20.9 °C 12.6 °C 1018.6 hPa SSE 4.7 km/h 4.8 km/h 59% 0.0 mm 388 W/m2
09:22 21.1 °C 12.8 °C 1018.6 hPa NE 1.4 km/h 8 km/h 59% 0.0 mm 404 W/m2
09:27 21.2 °C 12.6 °C 1018.6 hPa ESE 4.7 km/h 4.8 km/h 58% 0.0 mm 418 W/m2
09:32 21.2 °C 12.9 °C 1018.6 hPa NE 3.2 km/h 3.2 km/h 59% 0.0 mm 432 W/m2
09:37 21.3 °C 13 °C 1018.6 hPa NNW 1.4 km/h 4.8 km/h 59% 0.0 mm 448 W/m2
09:42 21.4 °C 12.8 °C 1018.6 hPa NE 3.2 km/h 6.4 km/h 58% 0.0 mm 461 W/m2
09:47 21.7 °C 13.3 °C 1018.6 hPa NE 6.4 km/h 8 km/h 59% 0.0 mm 466 W/m2
09:52 21.9 °C 13.3 °C 1018.6 hPa ENE 3.2 km/h 4.8 km/h 58% 0.0 mm 47 W/m2
09:57 22.2 °C 13 °C 1018.6 hPa Calm   4.8 km/h 56% 0.0 mm 223 W/m2
10:02 22.4 °C 13.2 °C 1018.6 hPa ENE 3.2 km/h 3.2 km/h 56% 0.0 mm 510 W/m2
10:07 22.7 °C 13.5 °C 1018.6 hPa SE 7.9 km/h 11.3 km/h 56% 0.0 mm 526 W/m2
10:12 22.9 °C 13.4 °C 1018.6 hPa NNE 1.4 km/h 3.2 km/h 55% 0.0 mm 536 W/m2
10:17 23.2 °C 13.7 °C 1018.6 hPa East 3.2 km/h 6.4 km/h 55% 0.0 mm 550 W/m2
10:22 23.4 °C 13.8 °C 1018.3 hPa Calm   1.6 km/h 55% 0.0 mm 561 W/m2
10:28 23.8 °C 14.2 °C 1018.6 hPa East 1.4 km/h 3.2 km/h 55% 0.0 mm 577 W/m2
10:33 24.2 °C 14.3 °C 1018.3 hPa NNW 4.7 km/h 6.4 km/h 54% 0.0 mm 587 W/m2
10:38 24.5 °C 14.3 °C 1018.3 hPa ENE 1.4 km/h 6.4 km/h 53% 0.0 mm 601 W/m2
10:43 24.8 °C 14 °C 1018.3 hPa Calm   4.8 km/h 51% 0.0 mm 617 W/m2
10:48 25 °C 14.2 °C 1018.3 hPa ESE 1.4 km/h 6.4 km/h 51% 0.0 mm 628 W/m2
10:53 25.2 °C 13.7 °C 1018.3 hPa NE 3.2 km/h 11.3 km/h 49% 0.0 mm 645 W/m2
10:58 25.4 °C 13.6 °C 1018.3 hPa SSE 6.4 km/h 8 km/h 48% 0.0 mm 656 W/m2
11:03 25.4 °C 13.9 °C 1018.3 hPa NE 7.9 km/h 9.7 km/h 49% 0.0 mm 668 W/m2
11:08 25.6 °C 13.8 °C 1018.3 hPa NE 3.2 km/h 14.5 km/h 48% 0.0 mm 680 W/m2
11:13 25.7 °C 13.9 °C 1018.3 hPa NNE 7.9 km/h 9.7 km/h 48% 0.0 mm 666 W/m2
11:18 25.8 °C 14 °C 1018.3 hPa SSE 6.4 km/h 8 km/h 48% 0.0 mm 687 W/m2
11:23 25.9 °C 14 °C 1018.3 hPa ESE 6.4 km/h 6.4 km/h 48% 0.0 mm 714 W/m2
11:28 26.1 °C 13.9 °C 1018.3 hPa NE 3.2 km/h 12.9 km/h 47% 0.0 mm 719 W/m2
11:33 26.2 °C 14.3 °C 1018.3 hPa SE 6.4 km/h 8 km/h 48% 0.0 mm 735 W/m2
11:38 26.3 °C 14.4 °C 1018.3 hPa ESE 4.7 km/h 12.9 km/h 48% 0.0 mm 701 W/m2
11:43 26.6 °C 14 °C 1018.3 hPa NNE 16.1 km/h 16.1 km/h 46% 0.0 mm 731 W/m2
11:48 26.7 °C 14.1 °C 1018.0 hPa East 6.4 km/h 6.4 km/h 46% 0.0 mm 747 W/m2
11:53 26.8 °C 14.2 °C 1018.0 hPa NNE 4.7 km/h 9.7 km/h 46% 0.0 mm 649 W/m2
11:58 26.9 °C 14.3 °C 1018.0 hPa SE 13 km/h 12.9 km/h 46% 0.0 mm 756 W/m2
12:03 27.2 °C 14.6 °C 1018.3 hPa ENE 3.2 km/h 14.5 km/h 46% 0.0 mm 770 W/m2
12:08 27.1 °C 14.5 °C 1018.3 hPa NNE 7.9 km/h 12.9 km/h 46% 0.0 mm 747 W/m2
12:13 27.1 °C 14.1 °C 1018.0 hPa NNE 4.7 km/h 17.7 km/h 45% 0.0 mm 772 W/m2
12:18 27.2 °C 14.6 °C 1018.3 hPa ENE 1.4 km/h 6.4 km/h 46% 0.0 mm 782 W/m2
12:23 27.3 °C 14.3 °C 1018.0 hPa NE 3.2 km/h 17.7 km/h 45% 0.0 mm 786 W/m2
12:28 27.3 °C 14.3 °C 1018.0 hPa South 3.2 km/h 12.9 km/h 45% 0.0 mm 791 W/m2
12:33 27.4 °C 14.4 °C 1018.0 hPa North 4.7 km/h 14.5 km/h 45% 0.0 mm 673 W/m2
12:38 27.6 °C 14.6 °C 1018.0 hPa NNE 3.2 km/h 6.4 km/h 45% 0.0 mm 817 W/m2
12:43 27.8 °C 14.8 °C 1018.0 hPa ENE 3.2 km/h 12.9 km/h 45% 0.0 mm 798 W/m2
12:48 27.9 °C 15.5 °C 1018.0 hPa East 4.7 km/h 4.8 km/h 47% 0.0 mm 791 W/m2
12:53 27.9 °C 14.9 °C 1018.0 hPa NE 4.7 km/h 6.4 km/h 45% 0.0 mm 779 W/m2
12:58 28.1 °C 14.7 °C 1018.0 hPa NNE 6.4 km/h 6.4 km/h 44% 0.0 mm 805 W/m2
13:03 28.3 °C 14.9 °C 1018.0 hPa ENE 4.7 km/h 6.4 km/h 44% 0.0 mm 816 W/m2
13:08 28.4 °C 14.6 °C 1018.0 hPa ENE 11.1 km/h 16.1 km/h 43% 0.0 mm 833 W/m2
13:13 28.2 °C 14.4 °C 1018.0 hPa Calm   6.4 km/h 43% 0.0 mm 782 W/m2
13:18 28.3 °C 15.2 °C 1017.6 hPa SSE 3.2 km/h 16.1 km/h 45% 0.0 mm 830 W/m2
13:23 28.6 °C 14.8 °C 1018.0 hPa ESE 4.7 km/h 4.8 km/h 43% 0.0 mm 779 W/m2
13:28 28.7 °C 14.9 °C 1018.0 hPa NW 3.2 km/h 6.4 km/h 43% 0.0 mm 814 W/m2
13:33 28.7 °C 14.5 °C 1017.6 hPa NNW 6.4 km/h 6.4 km/h 42% 0.0 mm 795 W/m2
13:38 28.5 °C 14.7 °C 1017.6 hPa NNE 6.4 km/h 11.3 km/h 43% 0.0 mm 786 W/m2
13:43 28.7 °C 15.2 °C 1017.6 hPa ENE 6.4 km/h 6.4 km/h 44% 0.0 mm 800 W/m2
13:48 28.8 °C 15 °C 1017.6 hPa East 3.2 km/h 12.9 km/h 43% 0.0 mm 821 W/m2
13:53 29.1 °C 14.9 °C 1017.3 hPa ENE 7.9 km/h 11.3 km/h 42% 0.0 mm 849 W/m2
13:58 29.4 °C 15.1 °C 1017.6 hPa NE 4.7 km/h 12.9 km/h 42% 0.0 mm 830 W/m2
14:03 29.4 °C 14.4 °C 1017.6 hPa Calm   8 km/h 40% 0.0 mm 837 W/m2
14:08 29.3 °C 15.1 °C 1017.3 hPa SE 6.4 km/h 6.4 km/h 42% 0.0 mm 842 W/m2
14:13 29.2 °C 14.6 °C 1017.3 hPa ENE 6.4 km/h 8 km/h 41% 0.0 mm 837 W/m2
14:18 29.3 °C 14.7 °C 1017.3 hPa South 3.2 km/h 11.3 km/h 41% 0.0 mm 854 W/m2
14:23 29.6 °C 15 °C 1017.3 hPa East 3.2 km/h 11.3 km/h 41% 0.0 mm 817 W/m2
14:28 29.6 °C 15.3 °C 1017.3 hPa ENE 7.9 km/h 11.3 km/h 42% 0.0 mm 826 W/m2
14:33 29.4 °C 14.8 °C 1017.3 hPa South 6.4 km/h 6.4 km/h 41% 0.0 mm 772 W/m2
14:38 29.5 °C 14.9 °C 1017.3 hPa ENE 7.9 km/h 8 km/h 41% 0.0 mm 742 W/m2
14:43 29.6 °C 15 °C 1017.3 hPa ESE 6.4 km/h 11.3 km/h 41% 0.0 mm 831 W/m2
14:48 29.8 °C 14.7 °C 1017.3 hPa NE 3.2 km/h 6.4 km/h 40% 0.0 mm 837 W/m2
14:53 30 °C 15.3 °C 1017.3 hPa NNW 1.4 km/h 9.7 km/h 41% 0.0 mm 837 W/m2
14:58 30.3 °C 14.8 °C 1016.9 hPa ESE 1.4 km/h 11.3 km/h 39% 0.0 mm 833 W/m2
15:03 30.3 °C 14.8 °C 1016.9 hPa East 4.7 km/h 9.7 km/h 39% 0.0 mm 833 W/m2
15:08 30.2 °C 15.1 °C 1016.9 hPa SE 1.4 km/h 6.4 km/h 40% 0.0 mm 826 W/m2
15:13 30.2 °C 15.1 °C 1016.9 hPa ENE 1.4 km/h 6.4 km/h 40% 0.0 mm 809 W/m2
15:18 30.1 °C 15 °C 1016.9 hPa East 1.4 km/h 6.4 km/h 40% 0.0 mm 780 W/m2
15:24 30.4 °C 15.3 °C 1016.9 hPa North 6.4 km/h 8 km/h 40% 0.0 mm 770 W/m2
15:29 30.6 °C 15.1 °C 1016.9 hPa ENE 3.2 km/h 8 km/h 39% 0.0 mm 745 W/m2
15:34 30.9 °C 14.9 °C 1016.9 hPa ENE 3.2 km/h 9.7 km/h 38% 0.0 mm 745 W/m2
15:39 30.8 °C 14.8 °C 1016.9 hPa NNE 1.4 km/h 8 km/h 38% 0.0 mm 803 W/m2
15:44 30.7 °C 15.2 °C 1016.9 hPa East 6.4 km/h 12.9 km/h 39% 0.0 mm 724 W/m2
15:49 30.8 °C 14.8 °C 1016.9 hPa East 4.7 km/h 14.5 km/h 38% 0.0 mm 696 W/m2
15:54 30.9 °C 14.1 °C 1016.9 hPa ENE 4.7 km/h 9.7 km/h 36% 0.0 mm 673 W/m2
15:59 30.9 °C 14.5 °C 1016.9 hPa ENE 1.4 km/h 4.8 km/h 37% 0.0 mm 664 W/m2
16:04 30.9 °C 14.5 °C 1016.6 hPa NE 4.7 km/h 4.8 km/h 37% 0.0 mm 747 W/m2
16:09 31 °C 14.2 °C 1016.6 hPa East 1.4 km/h 4.8 km/h 36% 0.0 mm 724 W/m2
16:14 31.2 °C 14.8 °C 1016.6 hPa ENE 1.4 km/h 6.4 km/h 37% 0.0 mm 722 W/m2
16:19 31.2 °C 14.4 °C 1016.6 hPa SE 7.9 km/h 11.3 km/h 36% 0.0 mm 703 W/m2
16:24 31 °C 14.6 °C 1016.6 hPa ENE 7.9 km/h 14.5 km/h 37% 0.0 mm 643 W/m2
16:29 30.9 °C 14.5 °C 1016.6 hPa NE 9.7 km/h 14.5 km/h 37% 0.0 mm 643 W/m2
16:34 30.9 °C 14.5 °C 1016.6 hPa NE 4.7 km/h 9.7 km/h 37% 0.0 mm 654 W/m2
16:39 31.1 °C 14.7 °C 1016.6 hPa SW 1.4 km/h 14.5 km/h 37% 0.0 mm 670 W/m2
16:44 31.1 °C 15.1 °C 1016.6 hPa ENE 3.2 km/h 3.2 km/h 38% 0.0 mm 659 W/m2
16:49 31.3 °C 14.4 °C 1016.6 hPa NE 4.7 km/h 8 km/h 36% 0.0 mm 657 W/m2
16:54 31.2 °C 14.4 °C 1016.6 hPa ENE 6.4 km/h 14.5 km/h 36% 0.0 mm 612 W/m2
16:59 31.2 °C 14.8 °C 1016.6 hPa ENE 1.4 km/h 6.4 km/h 37% 0.0 mm 606 W/m2
17:04 31.4 °C 14.5 °C 1016.6 hPa NE 4.7 km/h 4.8 km/h 36% 0.0 mm 605 W/m2
17:09 31.3 °C 14 °C 1016.6 hPa Calm   6.4 km/h 35% 0.0 mm 601 W/m2
17:14 31.6 °C 14.7 °C 1016.6 hPa North 1.4 km/h 4.8 km/h 36% 0.0 mm 563 W/m2
17:19 31.8 °C 14.9 °C 1016.6 hPa East 3.2 km/h 9.7 km/h 36% 0.0 mm 568 W/m2
17:24 31.8 °C 14.4 °C 1016.6 hPa SE 1.4 km/h 4.8 km/h 35% 0.0 mm 501 W/m2
17:29 31.8 °C 14.4 °C 1016.6 hPa NNW 3.2 km/h 4.8 km/h 35% 0.0 mm 415 W/m2
17:34 31.4 °C 14.1 °C 1016.6 hPa SE 1.4 km/h 6.4 km/h 35% 0.0 mm 308 W/m2
17:39 31.3 °C 14.4 °C 1016.6 hPa NW 1.4 km/h 6.4 km/h 36% 0.0 mm 457 W/m2
17:44 31.2 °C 14.4 °C 1016.6 hPa NNE 1.4 km/h 3.2 km/h 36% 0.0 mm 468 W/m2
17:49 31.2 °C 14.4 °C 1016.6 hPa SSE 3.2 km/h 14.5 km/h 36% 0.0 mm 410 W/m2
17:54 31.2 °C 14.4 °C 1016.6 hPa North 4.7 km/h 8 km/h 36% 0.0 mm 480 W/m2
17:59 31.3 °C 14.4 °C 1016.6 hPa ENE 3.2 km/h 14.5 km/h 36% 0.0 mm 457 W/m2
18:04 31.4 °C 14.5 °C 1016.3 hPa East 11.1 km/h 11.3 km/h 36% 0.0 mm 422 W/m2
18:09 31.4 °C 14.5 °C 1016.3 hPa ENE 3.2 km/h 12.9 km/h 36% 0.0 mm 424 W/m2
18:14 31.6 °C 15.1 °C 1016.3 hPa NNW 4.7 km/h 4.8 km/h 37% 0.0 mm 408 W/m2
18:19 31.8 °C 14 °C 1016.3 hPa ENE 7.9 km/h 11.3 km/h 34% 0.0 mm 410 W/m2
18:24 32 °C 14.6 °C 1016.3 hPa SE 3.2 km/h 4.8 km/h 35% 0.0 mm 387 W/m2
18:29 31.8 °C 14 °C 1016.3 hPa South 1.4 km/h 9.7 km/h 34% 0.0 mm 329 W/m2
18:34 31.8 °C 14.4 °C 1016.3 hPa East 1.4 km/h 3.2 km/h 35% 0.0 mm 288 W/m2
18:39 31.7 °C 14.4 °C 1016.3 hPa ENE 3.2 km/h 3.2 km/h 35% 0.0 mm 338 W/m2
18:44 31.8 °C 14.9 °C 1016.3 hPa NE 3.2 km/h 4.8 km/h 36% 0.0 mm 359 W/m2
18:49 31.7 °C 14.4 °C 1016.3 hPa NNW 3.2 km/h 6.4 km/h 35% 0.0 mm 322 W/m2
18:54 31.7 °C 14.4 °C 1016.3 hPa SE 4.7 km/h 6.4 km/h 35% 0.0 mm 294 W/m2
19:00 31.7 °C 14.8 °C 1016.3 hPa SE 3.2 km/h 4.8 km/h 36% 0.0 mm 272 W/m2
19:05 31.5 °C 14.6 °C 1016.3 hPa ENE 3.2 km/h 6.4 km/h 36% 0.0 mm 195 W/m2
19:10 31.3 °C 14.9 °C 1016.3 hPa SE 3.2 km/h 3.2 km/h 37% 0.0 mm 193 W/m2
19:15 31.3 °C 14.4 °C 1016.3 hPa Calm   1.6 km/h 36% 0.0 mm 204 W/m2
19:20 31.4 °C 15.4 °C 1016.3 hPa ESE 1.4 km/h 3.2 km/h 38% 0.0 mm 178 W/m2
19:25 31.3 °C 14.9 °C 1016.3 hPa ESE 1.4 km/h 1.6 km/h 37% 0.0 mm 148 W/m2
19:30 31.2 °C 15.6 °C 1016.3 hPa NE 1.4 km/h 4.8 km/h 39% 0.0 mm 160 W/m2
19:35 31 °C 14.2 °C 1016.3 hPa ENE 1.4 km/h 6.4 km/h 36% 0.0 mm 160 W/m2
19:40 30.8 °C 14.4 °C 1016.3 hPa Calm   9.7 km/h 37% 0.0 mm 167 W/m2
19:45 30.7 °C 14.8 °C 1016.6 hPa Calm   4.8 km/h 38% 0.0 mm 163 W/m2
19:50 30.6 °C 14.7 °C 1016.6 hPa ENE 1.4 km/h 3.2 km/h 38% 0.0 mm 155 W/m2
19:55 30.6 °C 15.5 °C 1016.6 hPa Calm   1.6 km/h 40% 0.0 mm 132 W/m2
20:00 30.4 °C 15.3 °C 1016.6 hPa Calm   3.2 km/h 40% 0.0 mm 121 W/m2
20:05 30.2 °C 15.9 °C 1016.6 hPa ESE 1.4 km/h 1.6 km/h 42% 0.0 mm 100 W/m2
20:10 29.9 °C 16 °C 1016.6 hPa Calm   1.6 km/h 43% 0.0 mm 81 W/m2
20:15 29.7 °C 15.8 °C 1016.6 hPa Calm     43% 0.0 mm 63 W/m2
20:20 29.5 °C 16 °C 1016.6 hPa Calm   1.6 km/h 44% 0.0 mm 46 W/m2
20:25 29.1 °C 16 °C 1016.6 hPa Calm   1.6 km/h 45% 0.0 mm 35 W/m2
20:30 28.7 °C 15.9 °C 1016.6 hPa East 1.4 km/h 3.2 km/h 46% 0.0 mm 21 W/m2
20:35 28.3 °C 15.6 °C 1016.9 hPa East 1.4 km/h 3.2 km/h 46% 0.0 mm 18 W/m2
20:40 27.8 °C 15.8 °C 1016.9 hPa East 1.4 km/h 3.2 km/h 48% 0.0 mm 16 W/m2
20:45 27.4 °C 15.7 °C 1016.9 hPa East 1.4 km/h 1.6 km/h 49% 0.0 mm 12 W/m2
20:50 26.9 °C 15.6 °C 1016.9 hPa Calm   3.2 km/h 50% 0.0 mm 11 W/m2
20:55 26.6 °C 15.6 °C 1016.9 hPa Calm   1.6 km/h 51% 0.0 mm 9 W/m2
21:01 26.2 °C 15.6 °C 1016.9 hPa East 1.4 km/h 1.6 km/h 52% 0.0 mm 7 W/m2
21:06 25.9 °C 15.6 °C 1016.9 hPa Calm   1.6 km/h 53% 0.0 mm 5 W/m2
21:11 25.6 °C 15.3 °C 1016.9 hPa Calm   3.2 km/h 53% 0.0 mm 0 W/m2
21:16 25.3 °C 15.6 °C 1016.9 hPa Calm   1.6 km/h 55% 0.0 mm 0 W/m2
21:21 25.1 °C 15.4 °C 1016.9 hPa Calm     55% 0.0 mm 0 W/m2
21:26 24.8 °C 15.4 °C 1016.9 hPa Calm   1.6 km/h 56% 0.0 mm 0 W/m2
21:31 24.7 °C 15.6 °C 1017.3 hPa Calm   1.6 km/h 57% 0.0 mm 0 W/m2
21:36 24.4 °C 15.6 °C 1017.3 hPa Calm   1.6 km/h 58% 0.0 mm 0 W/m2
21:41 24.2 °C 15.4 °C 1017.3 hPa Calm   1.6 km/h 58% 0.0 mm 0 W/m2
21:46 23.9 °C 15.4 °C 1017.3 hPa Calm     59% 0.0 mm 0 W/m2
21:51 23.8 °C 15.6 °C 1017.3 hPa Calm     60% 0.0 mm 0 W/m2
21:56 23.6 °C 15.4 °C 1017.3 hPa Calm     60% 0.0 mm 0 W/m2
22:01 23.3 °C 15.4 °C 1017.3 hPa Calm     61% 0.0 mm 0 W/m2
22:06 23.2 °C 15.3 °C 1017.3 hPa Calm     61% 0.0 mm 0 W/m2
22:11 22.9 °C 15.2 °C 1017.6 hPa Calm     62% 0.0 mm 0 W/m2
22:16 22.8 °C 15.4 °C 1017.6 hPa Calm     63% 0.0 mm 0 W/m2
22:21 22.6 °C 15.2 °C 1017.6 hPa Calm     63% 0.0 mm 0 W/m2
22:26 22.4 °C 15.3 °C 1017.6 hPa Calm     64% 0.0 mm 0 W/m2
22:31 22.3 °C 15.2 °C 1017.6 hPa Calm     64% 0.0 mm 0 W/m2
22:36 22.2 °C 15.1 °C 1017.6 hPa Calm     64% 0.0 mm 0 W/m2
22:41 22.1 °C 15.2 °C 1017.6 hPa Calm     65% 0.0 mm 0 W/m2
22:46 22 °C 15.1 °C 1017.6 hPa Calm     65% 0.0 mm 0 W/m2
22:51 21.9 °C 15.3 °C 1018.0 hPa Calm     66% 0.0 mm 0 W/m2
22:56 21.8 °C 15.2 °C 1018.0 hPa Calm     66% 0.0 mm 0 W/m2
23:01 21.7 °C 15.3 °C 1018.0 hPa Calm     67% 0.0 mm 0 W/m2
23:06 21.6 °C 15.2 °C 1018.0 hPa Calm     67% 0.0 mm 0 W/m2
23:11 21.4 °C 15 °C 1018.0 hPa Calm     67% 0.0 mm 0 W/m2
23:16 21.3 °C 15.2 °C 1018.0 hPa Calm     68% 0.0 mm 0 W/m2
23:21 21.2 °C 15.3 °C 1018.0 hPa Calm     69% 0.0 mm 0 W/m2
23:26 21 °C 15.1 °C 1018.0 hPa Calm     69% 0.0 mm 0 W/m2
23:31 21 °C 15.1 °C 1018.0 hPa Calm     69% 0.0 mm 0 W/m2
23:36 20.9 °C 15.2 °C 1018.0 hPa Calm     70% 0.0 mm 0 W/m2
23:41 20.9 °C 15.2 °C 1018.0 hPa Calm     70% 0.0 mm 0 W/m2
23:47 20.8 °C 15.1 °C 1018.0 hPa Calm     70% 0.0 mm 0 W/m2
23:52 20.7 °C 15 °C 1018.0 hPa Calm     70% 0.0 mm 0 W/m2
23:57 20.7 °C 15.3 °C 1018.0 hPa Calm     71% 0.0 mm 0 W/m2
Juneau County Weather
Compliments of Weather Underground - 4 mb